FENGYUN 1C DEB, 33723

Orbit data source: Space-Track

FENGYUN 1C DEB, 33723 is space debris in SSO originally from a launch on Mon, 10 May 1999 UTC launched from the Taiyaun Space Center, China (TSC). Fengyun 1C debris stems from the Chinese weather satellite Fengyun-1C, which was intentionally destroyed by a Chinese anti-satellite missile in 2007. This event dramatically increased the amount of space debris, with thousands of trackable fragments posing hazards to satellites and human spaceflight. The Fengyun 1C debris cloud has become a focal point in discussions about space sustainability and the need for international regulations to prevent the creation of new debris.

Loading next visibility...
Identifier
33723, 1999-025DHL
Orbit
SSO
Country
Flag of CNCN / PRC
Related business
Manufacturer
Unknown
Mission
Spacecraft
Bus & Motor
Unknown
Mass
Unknown
Launch date (UTC)
1999-05-10 (26 years ago)
Launch vehicle
Unknown
Launch site
Taiyaun Space Center, China (TSC)
Object type
Payload
Rocket body
Debris
Shape & HBR
Unknown shape, 0.1 m
Radar Cross Section
Small (<0.1 m²)

Expand to show TLE details & history
Last TLE update: 1 week ago

TLE from 1 week ago
0 FENGYUN 1C DEB
1 33723U 99025DHL 25303.03501336  .00005360  00000-0  27686-2 0  9992
2 33723  99.1556  22.6199 0101159  95.2166  28.6325 14.12828453630069
Epoch: 2025-10-30T00:50Z
TLE epoch observation values (Epoch: 2025-10-30T00:50:25.154Z)
Latitude
54.63924°
Longitude
164.47175°
Altitude
794.666 km
Speed
7.495 km/s
True Right ascension
14h 22m 42s
True Declination
54° 28' 39"
Sunlit
Object was in daylight at epoch
Visualization orbit readout
Latitude
Unknown
Longitude
Unknown
Altitude
Unknown
Speed
Unknown
Apparent Right ascension
Unknown
Apparent Declination
Unknown
Sunlit
N/A
Visualization observer readout
Local Sidereal Time
09:32:42
Azimuth
Unknown
Elevation
Unknown
Doppler factor
Unknown
Orbital elements
Apogee altitude
919.986 km
Perigee altitude
773.811 km
Semi-major axis
7,225.035 km
Eccentricity
0.01012
Inclination
99.1556°
RAAN
22.6199°
Arg. of periapsis
95.2166°
True anomaly
29.1942°
Mean anomaly
28.6325°
Eccentric anomaly
28.91272°
Mean motion
3.53414 °/min
Orbital period
101.86 mins
BSTAR
0.0027686
Loading maneuver chart data...
Computing Atmospheric mass density...

Documentation

Showing up to 5 results
|